Zurück zum Katalog

LIDE

AktivWissenschaftSSO
NORAD 64869·PAYLOAD·🇮🇹 Italy

Gestartet Jul 23, 2025 von Vandenberg Space Force Base

Loading…

Nächste Überflüge (nächste 24 Stunden)

TLE

AktuellSource: Space-Track

Epoche: Sep 14, 2026, 10:26 UTC

1 64869U 25154A   26257.43507492  .00002251  00000-0  21188-3 0  9999
2 64869  97.6628 319.2366 0003972 298.8962  61.1860 14.94832842 62339

Verfolge LIDE in Echtzeit mit AllMySat

Download on the App Store